This demonstration page uses our WeatherBlox Daily Observations layout. Learn more.

Left ArrowRight Arrow

Hourly Observations for September 2, 2021

Temp ( °F °C ) Dew Point ( °F °C ) Humidity (%) Winds ( mph kmh ) Pressure ( in mb ) Visibility ( mi km ) Precip ( " mm )
12:53 am 00:53 Clear 70 21.1 66 18.9 87 87 SE 14 22 29.86 1011 10 16 0.00 0.00
1:53 am 01:53 Clear 70 21.1 66 18.9 87 87 SSE 15 24 29.86 1011 10 16 0.00 0.00
2:53 am 02:53 Clear 70 21.1 66 18.9 87 87 SE 10 17 29.85 1011 10 16 0.00 0.00
3:53 am 03:53 Clear 70 21.1 66 18.9 87 87 SSE 13 20 29.83 1010 10 16 0.00 0.00
4:53 am 04:53 Mostly Clear 70 21.1 66 18.9 87 87 SSE 15 24 29.85 1011 10 16 0.00 0.00
5:53 am 05:53 Partly Cloudy 70 21.1 66 18.9 87 87 SSE 13 20 29.85 1011 10 16 0.00 0.00
6:37 am 06:37 Mostly Cloudy 69 20.6 66 18.9 90 90 S 13 20 29.84 1011 10 16 0.00 0.00
6:53 am 06:53 Mostly Cloudy 69 20.6 66 18.9 90 90 S 13 20 29.86 1011 10 16 0.00 0.00
7:04 am 07:04 Mostly Cloudy 69 20.6 66 18.9 90 90 S 10 17 29.85 1011 10 16 0.00 0.00
7:33 am 07:33 Mostly Cloudy 69 20.6 66 18.9 90 90 S 7 11 29.85 1011 10 16 0.00 0.00
7:53 am 07:53 Cloudy 69 20.6 66 18.9 90 90 S 8 13 29.88 1012 10 16 0.00 0.00
8:53 am 08:53 Mostly Cloudy 69 20.6 66 18.9 90 90 SSE 6 9 29.87 1012 10 16 0.00 0.00
9:11 am 09:11 Cloudy with Light Rain 69 20.6 66 18.9 90 90 VRB 5 7 29.86 1011 9 14 0.00 0.00
9:21 am 09:21 Cloudy with Light Rain 69 20.6 67 19.4 93 93 SSW 5 7 29.86 1011 8 13 0.01 0.25
9:31 am 09:31 Cloudy with Light Rain 70 21 66 19 88 88 S 6 9 29.86 1011 8 13 0.00 0.00
9:53 am 09:53 Cloudy with Light Rain 69 20.6 67 19.4 93 93 SE 8 13 29.88 1012 8 13 0.03 0.76
10:03 am 10:03 Cloudy with Light Rain 69 20.6 67 19.4 93 93 SSE 9 15 29.85 1011 10 16 0.01 0.25
10:12 am 10:12 Cloudy 69 20.6 68 20 96 96 S 8 13 29.88 1012 10 16 0.01 0.25
10:21 am 10:21 Cloudy 69 20.6 68 20 96 96 S 10 17 29.87 1012 10 16 0.01 0.25
10:28 am 10:28 Cloudy with Light Rain 69 20.6 67 19.4 93 93 S 8 13 29.85 1011 10 16 0.01 0.25
10:34 am 10:34 Cloudy with Light Rain 70 21.1 68 20 93 93 SSE 8 13 29.86 1011 10 16 0.01 0.25
10:44 am 10:44 Mostly Cloudy with Light Rain 70 21.1 68 20 93 93 SSE 9 15 29.85 1011 9 14 0.01 0.25
10:53 am 10:53 Mostly Cloudy with Light Rain 70 21.1 68 20 93 93 S 5 7 29.87 1012 8 13 0.01 0.25
11:23 am 11:23 Mostly Cloudy with Light Rain 70 21.1 68 20 93 93 S 10 17 29.85 1011 10 16 0.01 0.25
11:53 am 11:53 Cloudy with Light Rain 70 21.1 69 20.6 97 97 S 10 17 29.88 1012 5 8 0.02 0.51
12:53 pm 12:53 Cloudy with Light Rain 70 21.1 69 20.6 97 97 S 13 20 29.87 1011 4 6 0.04 1.02
1:16 pm 13:16 Cloudy 69 20.6 67 19.4 93 93 S 15 24 29.83 1010 10 16 0.00 0.00
1:42 pm 13:42 Cloudy with Heavy Rain 69 20.6 66 18.9 90 90 S 14 22 29.84 1011 2 3 0.10 2.54
1:49 pm 13:49 Cloudy with Heavy Rain 70 21 66 19 88 88 S 13 20 29.84 1010 1 2 0.19 4.83
1:53 pm 13:53 Cloudy with Heavy Rain 69 20.6 66 18.9 90 90 S 13 20 29.87 1012 1 2 0.21 5.33
2:00 pm 14:00 Cloudy with Light Rain 69 20.6 66 18.9 90 90 SSE 14 22 29.82 1010 3 5 0.01 0.25
2:53 pm 14:53 Mostly Cloudy 74 23.3 64 17.8 71 71 SSE 24 39 29.81 1010 10 16 0.02 0.51
3:53 pm 15:53 Cloudy 77 25 66 18.9 69 69 S 14 22 29.80 1009 10 16 0.00 0.00
4:53 pm 16:53 Cloudy 77 25 70 21.1 79 79 SSE 12 19 29.80 1009 10 16 0.00 0.00
5:17 pm 17:17 Mostly Cloudy 78 25.6 70 21.1 76 76 SSE 12 19 29.75 1007 10 16 0.00 0.00
5:41 pm 17:41 Mostly Cloudy 78 25.6 68 20 71 71 S 15 24 29.74 1007 10 16 0.00 0.00
5:53 pm 17:53 Mostly Cloudy 79 26.1 68 20 69 69 SSE 14 22 29.79 1009 10 16 0.00 0.00
6:53 pm 18:53 Mostly Sunny 77 25 68 20 74 74 SSE 13 20 29.80 1009 10 16 0.00 0.00
7:35 pm 19:35 Mostly Cloudy with Nearby Thunderstorms 76 24.4 69 20.6 79 79 SSE 12 19 29.76 1008 10 16 0.00 0.00
7:53 pm 19:53 Mostly Cloudy with Nearby Thunderstorms 76 24.4 70 21.1 82 82 SSE 7 11 29.81 1010 10 16 0.00 0.00
8:00 pm 20:00 Cloudy with Thunderstorms 75 24 72 22 89 89 S 6 9 29.78 1008 10 16 0.00 0.00
8:07 pm 20:07 Cloudy with Strong Thunderstorms 74 23.3 71 21.7 91 91 WSW 7 11 29.79 1009 2 3 0.10 2.54
8:16 pm 20:16 Cloudy with Strong Thunderstorms 74 23.3 72 22.2 94 94 S 13 20 29.78 1009 1 2 0.34 8.64
8:28 pm 20:28 Cloudy with Thunderstorms 73 22.8 65 18.3 76 76 S 8 13 29.79 1009 3 5 0.43 10.92
8:37 pm 20:37 Cloudy with Strong Thunderstorms 72 22.2 65 18.3 79 79 S 6 9 29.80 1009 2 3 0.55 13.97
8:46 pm 20:46 Cloudy with Thunderstorms 72 22.2 67 19.4 84 84 W 6 9 29.81 1010 4 6 0.57 14.48
8:49 pm 20:49 Cloudy with Nearby Thunderstorms 72 22 66 19 83 83 W 3 6 29.81 1010 8 13 0.00 0.00
8:53 pm 20:53 Cloudy with Nearby Thunderstorms 71 21.7 67 19.4 87 87 Calm 29.85 1011 10 16 0.57 14.48
9:04 pm 21:04 Cloudy with Thunderstorms 71 21.7 67 19.4 87 87 VRB 6 9 29.82 1010 10 16 0.00 0.00
9:25 pm 21:25 Cloudy with Light Rain 71 21.7 68 20 90 90 SW 3 6 29.83 1010 10 16 0.00 0.00
9:53 pm 21:53 Cloudy 72 22.2 69 20.6 91 91 SSW 5 7 29.86 1011 10 16 0.00 0.00
10:34 pm 22:34 Mostly Cloudy 72 22.2 69 20.6 91 91 Calm 29.83 1010 10 16 0.00 0.00
10:44 pm 22:44 Partly Cloudy 71 21.7 68 20 90 90 S 5 7 29.83 1010 10 16 0.00 0.00
10:53 pm 22:53 Mostly Cloudy 72 22.2 68 20 87 87 SSW 3 6 29.86 1011 10 16 0.00 0.00
11:53 pm 23:53 Clear 71 21.7 67 19.4 87 87 Calm 29.87 1012 10 16 0.00 0.00

Powered by AerisWeather